Regional Weather Roundup
Issued by NWS

Home | Current Version | Previous Version | Graphics & Text | Print | Product List | Glossary Off
Versions: 1 2 3 4 5 6 7 8 9 10 11 12 13 14 15 16 17 18 19 20 21 22 23 24 25 26 27 28 29 30 31 32 33 34 35 36 37 38 39 40 41 42 43 44 45 46 47 48 49 50

000
ASUS43 KTOP 262359
RWRKS

WEATHER ROUNDUP FOR KANSAS
NATIONAL WEATHER SERVICE GOODLAND KS
700 PM CDT TUE JUL 26 2016

NOTE:  "FAIR" INDICATES FEW OR NO CLOUDS BELOW 12,000 FEET WITH NO
SIGNIFICANT WEATHER AND/OR OBSTRUCTIONS TO VISIBILITY.

KSZ001>006-013>018-027>032-041>047-270100-
NORTHWEST KANSAS

CITY           SKY/WX    TMP DP  RH WIND       PRES   REMARKS
GOODLAND       SUNNY     87  64  46 S15       30.01F
6HR MIN TEMP:  80; 6HR MAX TEMP:  92;

HAYS           SUNNY     88  64  45 SE12      29.98S
HILL CITY      MOSUNNY   88  67  49 SE10      29.99S
6HR MIN TEMP:  83; 6HR MAX TEMP:  89;

RUSSELL        SUNNY     88  65  46 SE10      29.96S
6HR MIN TEMP:  84; 6HR MAX TEMP:  91;

$$

KSZ061>065-074>080-084>089-270100-
SOUTHWEST KANSAS

CITY           SKY/WX    TMP DP  RH WIND       PRES   REMARKS
DODGE CITY     SUNNY     87  64  46 S10       30.00S
6HR MIN TEMP:  82; 6HR MAX TEMP:  89;

ELKHART          N/A     92  66  42 E12         N/A
GARDEN CITY    SUNNY     86  67  52 SE14      30.00S
6HR MIN TEMP:  84; 6HR MAX TEMP:  88;

GREAT BEND     SUNNY     88  66  48 SE9       29.97S
LIBERAL        SUNNY     90  66  45 E14       30.00F
$$

KSZ066>073-081>083-090>101-270100-
SOUTHEAST KANSAS

CITY           SKY/WX    TMP DP  RH WIND       PRES   REMARKS
CHANUTE        CLOUDY    87  73  62 NE9       29.96S
6HR MIN TEMP:  85; 6HR MAX TEMP:  89;

COFFEYVILLE    CLOUDY    78  74  87 SE3       29.95R
6HR MIN TEMP:  76; 6HR MAX TEMP:  90; 6HR PCP:  1.09;

HUTCHINSON     SUNNY     89  70  53 E9        29.96S
6HR MIN TEMP:  85; 6HR MAX TEMP:  91;

NEWTON         SUNNY     84  72  67 E10       29.98F
PARSONS        CLOUDY    81  71  71 SE5       29.97R
6HR MIN TEMP:  80; 6HR MAX TEMP:  89;

WICHITA INTL   MOSUNNY   88  70  55 E8        29.95S
6HR MIN TEMP:  85; 6HR MAX TEMP:  92;

WICHITA JABRA  SUNNY     86  72  62 E12       29.96S
6HR MIN TEMP:  84; 6HR MAX TEMP:  89;

WICHITA MCCONL SUNNY     88  71  57 E8        29.96S
WINFIELD       MOSUNNY   88  73  61 E8        29.95S HX  95
6HR MIN TEMP:  84; 6HR MAX TEMP:  91;

$$

KSZ007>012-019>026-033>040-048>060-102>105-270100-
NORTHEAST KANSAS

CITY           SKY/WX    TMP DP  RH WIND       PRES   REMARKS
CONCORDIA      SUNNY     83  68  60 SE8       29.97F
6HR MIN TEMP:  82; 6HR MAX TEMP:  87;

EMPORIA        SUNNY     85  66  53 E13       29.98S
6HR MIN TEMP:  82; 6HR MAX TEMP:  87;

LAWRENCE       SUNNY     86  68  54 E6        29.97S
6HR MIN TEMP:  84; 6HR MAX TEMP:  89;

MANHATTAN      SUNNY     86  69  56 NE8       29.96F
6HR MIN TEMP:  85; 6HR MAX TEMP:  88;

OLATHE IND     SUNNY     86  68  54 E8        29.99S
6HR MIN TEMP:  84; 6HR MAX TEMP:  89;

OLATHE EXE     SUNNY     83  67  58 E7        29.99S
6HR MIN TEMP:  83; 6HR MAX TEMP:  87;

SALINA         SUNNY     90  68  48 E9        29.96S
6HR MIN TEMP:  86; 6HR MAX TEMP:  92;

TOPEKA BILLARD SUNNY     88  67  49 E6        29.98R
6HR MIN TEMP:  85; 6HR MAX TEMP:  89;

TOPEKA FORBES  SUNNY     88  67  49 E7        29.98S
6HR MIN TEMP:  86; 6HR MAX TEMP:  90;

$$



USA.gov is the U.S. government's official web portal to all federal, state and local government web resources and services.